User: anonymous   Login
Location: *
(17.3280°S, 114.7300°W)
Time: 15:43:48
(UTC+00:00)
Language:

Cosmos 1689 Rocket - Orbit

View from above orbital plane
View from above orbital plane
View from above satellite
View from above satellite

Ground track
Ground track

The orbit data is extracted from the following two-line orbital elements,

1 16111U 85090B   20295.56522435  .00013158  00000-0  12998-3 0  9992
2 16111  97.4857 116.3176 0011092 154.7004 205.4801 15.65960208934751
Epoch (UTC): 21 October 2020 13:33:55
Eccentricity: 0.0011092
inclination: 97.4857°
perigee height: 363 km
apogee height: 378 km
right ascension of ascending node: 116.3176°
argument of perigee: 154.7004°
revolutions per day: 15.65960208
mean anomaly at epoch: 205.4801°
orbit number at epoch: 93475

The dashed part of the orbit path shows where the satellite is in the earth's shadow,  

DLR